GFSGL_con_3kmhel_117.txt.gz
Helicity
3 31 54 81 104 123 221 184 182 180 225 234 231 213 218 240 248 263 231 200 154 156 149 163 145 206 270 336 425 346 327 236 156 133 169 144 170 173 227 254 241 213 188
14 26 60 97 101 158 192 175 181 199 272 238 178 169 172 204 226 236 248 204 148 137 165 135 143 165 245 246 263 223 174 190 208 148 196 174 168 180 220 265 226 210 236
-19 18 48 70 81 162 148 137 159 258 329 243 154 121 168 181 200 203 196 176 143 151 140 161 160 208 212 170 176 165 134 138 144 255 213 158 229 310 272 227 266 203 224
-32 32 50 37 76 125 134 141 131 302 273 219 111 136 158 173 165 177 179 184 170 139 123 128 200 203 226 219 202 181 147 112 175 168 192 188 186 251 240 241 219 204 134
-8 47 70 26 61 130 124 133 138 236 277 205 144 165 164 152 143 145 157 159 179 159 120 120 127 221 199 238 272 271 249 291 283 269 281 271 282 234 181 155 180 196 231
11 44 93 44 31 109 114 102 155 266 319 260 188 181 156 128 97 99 110 107 127 97 93 108 134 178 252 260 280 331 345 278 381 393 373 212 244 201 186 155 201 216 225
12 55 59 177 84 103 111 128 155 269 268 233 187 166 136 106 82 76 95 96 107 94 95 113 86 104 115 252 360 430 386 400 275 323 271 186 150 151 175 196 256 231 279
33 86 62 177 172 136 149 157 205 261 248 187 183 168 164 167 87 72 72 83 90 68 62 86 95 82 112 214 311 395 378 319 265 255 231 212 225 221 224 211 256 372 387
82 130 93 150 197 96 133 187 256 287 303 298 265 256 210 188 116 64 71 66 93 97 108 107 57 69 103 187 228 254 266 269 275 332 388 327 298 297 245 221 276 356 343
77 154 144 97 234 330 200 210 272 403 436 424 441 423 328 255 191 63 66 126 166 165 171 151 161 65 148 189 185 219 241 217 214 264 302 312 275 284 327 289 243 303 309
74 150 202 161 180 375 524 419 395 444 499 488 533 485 440 388 300 145 125 158 187 216 197 184 171 167 207 249 252 251 257 311 318 301 293 298 308 312 294 280 295 246 257
109 171 279 279 172 303 645 597 568 505 501 499 480 480 491 462 403 339 314 305 278 295 257 250 230 237 291 313 333 331 411 465 391 362 358 330 317 332 331 327 349 365 369
24 105 193 310 340 305 460 740 687 628 595 508 470 433 438 410 405 398 389 423 396 398 345 315 312 337 399 425 381 415 410 407 419 424 407 385 351 324 308 348 348 353 388
18 53 131 238 330 455 430 482 523 602 659 555 486 399 406 358 293 325 389 443 457 410 365 362 365 403 449 389 430 467 390 433 454 417 378 350 318 261 259 268 287 289 314
12 11 33 106 224 274 446 395 348 380 340 331 391 405 384 374 297 265 277 331 360 357 345 372 431 460 451 450 448 376 381 387 364 317 318 275 227 258 253 211 213 227 213
24 15 18 36 61 139 184 245 436 412 384 340 276 223 267 282 283 198 141 184 317 479 361 379 396 382 391 388 334 334 355 313 272 238 227 205 206 209 205 196 180 179 202
48 53 15 32 56 95 125 136 173 291 377 378 312 262 219 244 289 277 325 354 318 296 341 326 315 292 271 275 279 260 253 233 200 192 184 173 182 200 208 199 187 174 177
51 75 73 71 59 77 111 144 154 167 187 226 269 218 208 198 191 200 196 240 271 307 263 223 219 215 218 226 217 214 212 216 212 205 216 213 219 215 228 226 219 211 192
66 55 63 70 84 81 91 127 173 191 166 144 147 192 189 202 211 215 219 200 172 184 182 197 191 191 195 191 190 198 201 207 218 241 223 210 198 201 228 218 217 227 238
93 97 88 72 75 91 108 125 135 138 138 127 130 125 128 189 228 227 216 197 193 184 174 179 171 165 171 181 188 197 213 222 232 238 223 205 195 184 200 221 213 211 206
90 105 107 101 97 90 89 100 97 102 110 116 119 121 142 153 162 189 202 215 204 206 212 223 230 217 205 196 199 207 214 209 201 205 207 212 201 194 200 202 200 178 167
109 105 107 103 97 103 97 101 109 111 107 113 120 146 169 165 164 171 188 205 210 213 200 203 218 222 224 214 198 212 222 233 237 224 197 188 200 187 158 169 177 165 157
113 117 134 140 133 132 128 116 111 109 110 111 116 131 150 162 166 172 173 172 182 197 200 206 206 220 225 231 223 200 195 206 206 206 196 183 185 187 170 166 127 148 147
105 114 112 116 118 126 132 134 127 129 116 116 121 130 141 151 159 164 164 166 185 196 187 186 188 173 178 185 184 188 177 176 176 185 169 139 138 142 150 149 151 158 160
136 123 116 122 130 131 132 134 136 135 128 116 114 117 125 132 149 157 148 141 152 167 170 138 141 157 162 159 160 165 164 167 167 167 171 168 153 150 143 155 162 161 176
165 166 158 147 140 130 122 119 121 122 124 121 110 99 103 118 124 120 114 112 120 139 147 131 129 124 121 119 126 140 143 147 151 159 154 144 144 151 148 150 163 158 165

GFSGL_con_3kmhel_120.txt.gz
Helicity
77 34 34 45 46 51 90 105 145 151 211 220 210 225 222 216 239 233 228 233 219 232 194 176 121 159 214 216 290 307 354 371 364 289 195 120 168 238 215 211 227 205 190
40 27 38 44 46 50 84 78 119 159 208 206 202 224 224 216 238 225 223 217 218 212 174 142 122 158 184 243 279 293 301 373 290 242 178 168 199 296 308 280 257 243 246
20 18 30 46 45 67 90 134 117 169 207 193 214 251 260 211 207 194 204 221 210 176 164 140 107 138 140 199 242 327 295 294 283 254 224 199 208 247 292 253 277 261 250
11 -4 4 30 36 56 68 153 120 171 183 230 220 258 193 199 141 183 205 214 186 164 151 117 120 111 129 154 200 226 241 258 196 235 248 211 190 195 238 277 265 317 317
11 -9 1 29 53 71 57 120 131 157 156 204 249 241 223 188 166 184 188 189 169 147 123 106 117 97 91 137 233 208 185 167 172 189 227 277 261 231 229 272 284 221 219
7 -33 -25 11 64 84 75 73 118 135 154 198 242 223 193 191 138 156 177 177 171 149 137 118 113 111 125 202 233 207 230 189 129 158 207 249 276 245 297 233 295 164 180
13 12 11 38 93 131 93 60 106 110 141 195 265 246 170 187 128 136 157 167 156 140 122 96 135 116 126 174 305 405 411 317 276 298 287 349 416 276 213 249 262 242 209
29 35 38 73 123 151 99 52 94 126 125 202 188 212 230 222 136 134 136 156 143 125 100 82 73 82 134 238 337 388 363 365 408 409 341 477 373 382 295 222 247 309 305
45 55 59 88 137 138 41 115 83 175 195 239 327 294 283 241 151 139 157 151 156 175 158 155 110 120 133 195 279 321 327 268 318 395 421 396 394 348 281 268 294 349 316
13 52 35 76 98 67 108 122 63 228 377 476 464 474 386 299 218 124 166 195 219 196 174 145 168 92 134 164 178 237 248 224 244 288 320 356 336 373 400 254 219 274 293
-16 1 31 60 102 114 73 250 326 549 553 575 571 529 439 391 263 126 157 178 202 212 189 172 151 97 159 171 178 178 161 207 224 239 244 252 240 251 279 283 282 244 280
-25 0 68 81 120 171 66 251 490 666 604 545 588 581 570 432 368 257 223 246 253 278 241 232 221 226 268 265 257 258 291 323 281 291 301 288 269 287 305 316 335 346 326
-13 -3 21 89 151 264 203 142 569 620 647 663 606 582 637 509 472 407 401 411 392 385 323 300 309 333 367 361 288 289 358 332 333 341 323 321 305 286 291 290 321 355 416
-20 2 17 43 128 245 331 266 361 648 711 720 694 600 565 544 567 522 545 547 564 510 392 306 298 355 395 387 396 408 389 389 373 365 360 354 345 314 319 305 334 352 363
10 -19 5 15 67 128 271 458 375 529 521 602 615 515 502 519 493 414 412 483 443 386 366 347 339 353 400 427 399 414 403 407 428 383 377 335 327 310 311 271 261 292 291
12 29 -14 7 21 64 96 185 460 417 487 426 470 335 281 302 310 367 404 371 378 379 472 460 499 479 570 416 449 396 403 382 374 271 264 260 259 253 248 260 236 223 225
30 24 15 13 15 50 69 83 123 241 351 379 385 399 398 422 395 403 404 311 345 358 436 405 416 400 367 310 316 302 316 280 231 232 220 214 210 209 193 184 178 189 217
34 46 29 32 41 48 50 33 26 62 109 152 235 202 204 207 208 196 194 206 253 270 271 274 233 217 247 229 199 197 212 215 207 204 211 208 206 193 195 198 192 192 210
33 29 38 52 64 71 74 76 63 52 42 44 78 151 141 134 145 155 152 152 159 216 227 235 217 211 202 191 203 213 210 218 218 215 203 197 205 217 233 229 235 226 209
62 68 59 53 62 83 92 97 101 103 108 119 132 137 139 169 194 183 217 230 238 223 215 217 210 196 185 190 202 199 212 215 217 211 206 211 221 214 215 223 220 221 215
69 74 83 88 89 80 78 86 91 106 114 122 131 141 167 169 186 204 209 218 204 206 207 205 207 203 195 199 212 232 236 227 215 209 207 209 207 223 213 208 202 200 185
82 88 94 95 94 107 104 96 89 87 88 99 110 152 180 175 173 176 186 191 191 198 190 191 208 209 204 204 197 216 232 232 208 201 211 209 200 198 190 190 188 179 173
84 93 99 109 106 113 116 109 104 104 106 109 108 120 140 151 155 164 169 170 173 185 187 187 184 205 217 224 227 211 209 219 194 151 182 190 186 174 158 162 155 160 156
93 97 91 95 105 114 114 118 114 116 115 125 131 134 135 135 137 139 136 139 156 172 184 188 179 164 173 194 194 189 176 171 168 160 140 150 159 162 166 162 154 147 141
98 103 109 99 90 92 103 104 109 115 115 113 118 125 134 135 138 142 139 141 148 157 167 152 139 151 161 162 163 166 161 176 175 167 142 142 148 146 148 144 135 141 142
121 111 100 100 106 106 104 106 110 113 111 109 106 113 112 119 109 113 115 126 134 134 136 125 117 122 126 134 145 151 159 163 168 168 140 130 134 135 134 138 148 143 139

GFSGL_con_3kmhel_123.txt.gz
Helicity
83 51 37 9 21 69 87 97 116 131 116 136 201 239 233 201 212 241 218 263 235 241 232 220 197 235 194 150 93 107 214 279 290 444 355 420 276 195 213 292 209 149 151
133 138 143 139 106 95 86 94 104 117 103 120 170 216 212 183 202 221 207 250 244 265 234 201 207 238 174 145 111 133 189 275 387 315 333 307 281 211 263 252 218 178 157
114 115 94 87 76 87 74 81 114 121 101 120 154 200 221 183 198 209 217 249 254 247 213 207 227 235 169 159 145 142 157 195 263 316 303 367 275 298 348 328 317 274 217
79 81 100 103 80 65 62 77 101 119 154 144 139 189 215 187 193 241 242 244 241 209 198 194 225 230 164 161 169 145 183 188 259 281 300 257 318 295 297 338 365 350 331
96 77 85 88 76 55 50 63 87 117 140 133 149 186 175 187 243 239 206 229 190 207 205 216 213 187 149 142 163 184 201 204 303 257 220 294 242 289 253 281 276 287 278
98 52 43 59 65 61 65 73 78 90 82 90 117 131 163 203 202 204 215 198 170 196 201 195 189 144 121 108 143 174 210 314 263 241 262 178 204 209 257 282 343 272 203
68 60 50 58 56 76 91 92 104 105 83 110 106 149 187 209 193 189 178 199 173 182 182 196 193 160 126 97 128 195 266 253 251 239 181 179 196 244 271 279 290 315 287
25 18 15 54 76 88 116 134 148 133 118 123 130 108 196 200 190 137 167 204 174 173 192 188 193 177 141 181 214 323 443 400 305 216 211 267 311 292 304 328 393 466 382
27 29 28 41 74 70 122 163 185 125 35 123 118 154 127 175 130 162 184 205 204 229 237 230 187 180 142 204 284 315 345 360 332 361 391 444 561 538 491 476 361 302 228
24 6 -7 -8 2 37 104 188 135 119 80 263 307 310 246 258 222 199 246 263 286 291 276 245 256 154 147 174 199 225 299 233 218 272 417 441 442 531 575 514 372 341 312
8 2 -7 -7 -23 -5 60 133 82 92 246 382 416 343 565 371 271 218 261 254 273 276 241 224 220 148 174 192 191 161 174 213 247 272 311 337 344 330 331 344 343 271 335
-21 -19 -12 -12 -33 -31 60 133 114 128 240 388 497 529 562 530 372 287 250 266 274 275 267 237 243 268 264 240 214 207 252 265 232 267 266 280 292 291 301 336 350 340 319
3 -23 -11 -7 -12 -28 95 213 148 181 246 486 477 591 526 600 561 453 363 355 346 356 323 285 285 310 340 323 260 251 296 283 276 310 307 303 297 284 287 328 383 426 470
4 3 -19 -26 -23 -4 59 178 209 236 257 332 685 543 709 534 644 549 507 512 470 447 394 356 356 389 394 366 370 370 332 329 335 341 324 329 321 344 363 306 353 400 416
-7 3 8 -18 -6 -29 -27 99 166 275 296 373 464 452 530 563 602 433 497 528 462 418 395 372 383 364 380 364 364 367 364 388 419 405 429 396 376 366 323 310 274 272 295
-9 -12 -13 -7 -10 -18 -16 -22 148 241 337 303 329 396 473 494 460 331 407 492 534 476 499 470 450 442 465 439 402 408 463 436 433 443 356 321 306 333 306 290 307 311 292
1 4 -1 1 16 1 -1 -13 3 50 157 272 238 226 220 319 303 283 302 349 361 378 369 328 300 329 323 317 386 443 407 396 374 306 265 268 232 204 227 246 275 277 279
18 17 9 10 8 11 10 4 -12 9 40 75 133 180 194 228 269 298 320 352 428 453 370 381 365 397 373 332 341 288 298 266 246 225 208 211 208 202 210 225 223 221 231
28 26 22 26 32 34 33 36 33 33 34 43 61 92 107 108 162 221 261 241 234 251 248 234 215 208 212 229 196 176 175 196 201 207 202 197 196 196 216 201 206 217 227
30 56 49 44 46 47 47 44 47 56 71 94 122 137 122 121 186 186 198 193 205 204 198 205 218 211 214 228 224 214 228 236 229 222 221 213 204 196 200 205 215 223 214
45 45 54 57 64 54 48 51 40 32 30 42 71 114 143 127 143 173 191 220 212 202 200 214 238 231 215 196 181 193 200 200 200 203 207 202 197 212 205 201 192 187 182
65 71 71 63 61 72 69 62 62 63 67 65 62 100 130 118 126 143 170 183 171 168 163 158 169 179 185 193 190 188 191 188 179 169 175 175 176 179 181 191 192 188 181
78 77 81 82 76 80 80 77 75 82 91 100 106 123 142 142 143 155 168 172 176 186 184 179 172 192 205 213 215 196 181 183 159 129 146 157 159 161 161 162 156 171 171
76 84 80 79 81 77 78 83 83 99 94 105 120 128 134 139 148 157 151 154 167 184 192 191 189 183 182 196 191 181 168 157 145 135 127 135 142 150 154 154 149 138 128
67 65 74 77 74 70 80 83 81 87 94 96 98 103 116 129 137 143 149 155 164 168 174 158 150 165 176 176 175 178 175 179 160 140 128 138 143 141 134 133 124 137 136
58 58 57 59 69 73 68 75 87 88 88 87 88 94 97 98 99 114 118 120 126 129 130 130 129 139 144 144 149 155 169 178 163 150 123 118 126 129 131 132 136 124 120

GFSGL_con_3kmhel_126.txt.gz
Helicity
187 111 74 69 99 133 132 129 128 134 132 139 168 163 163 188 229 246 260 236 214 189 254 257 234 260 232 224 211 233 208 176 121 173 200 248 227 345 373 277 210 191 132
135 144 87 59 56 66 97 133 164 156 154 147 146 125 140 157 231 280 258 221 215 257 249 260 231 258 208 198 219 231 186 148 138 180 251 307 310 334 449 285 264 243 263
144 107 102 111 124 118 124 132 151 154 143 146 133 132 126 144 219 264 242 199 189 224 248 248 258 249 189 210 240 231 190 168 127 183 259 348 394 395 352 398 358 347 342
153 116 103 132 139 135 121 116 116 129 129 136 118 124 118 149 198 236 242 194 185 238 236 220 253 226 181 200 245 225 216 187 153 184 221 357 431 386 423 369 351 396 316
143 158 147 127 114 90 87 92 87 105 112 110 96 103 129 152 221 252 228 182 205 262 246 238 253 195 159 191 235 215 221 174 161 169 203 318 380 418 318 330 397 350 321
130 145 130 111 102 93 95 112 112 113 107 111 98 108 131 176 216 210 175 185 220 236 244 242 177 133 136 165 186 189 179 172 171 175 194 241 354 290 321 362 379 343 320
121 110 108 110 114 94 88 88 114 120 110 114 102 114 111 145 133 154 175 214 225 197 199 235 209 182 176 156 153 171 165 150 139 170 191 287 309 269 345 321 292 290 249
72 62 55 53 60 68 47 62 94 108 116 101 108 88 80 135 147 159 189 207 216 223 193 210 186 166 155 194 232 294 282 260 240 217 205 262 262 325 266 288 330 376 361
87 56 36 30 27 6 14 46 87 101 105 122 102 87 107 141 159 155 225 243 220 238 219 197 156 177 182 240 261 309 274 272 342 332 418 344 363 300 340 447 373 312 288
90 62 5 -1 8 1 -19 -0 68 110 130 98 105 137 77 138 160 213 240 303 326 321 298 250 184 187 210 263 258 255 242 206 271 333 369 440 457 513 640 382 430 344 399
55 47 18 -12 20 33 8 7 35 117 134 146 101 138 201 250 140 177 303 271 316 306 297 246 243 187 184 202 223 203 188 274 266 337 340 353 337 387 431 439 491 396 498
23 22 21 -15 -30 1 22 61 69 123 163 133 103 181 243 235 243 244 358 362 276 366 312 282 275 284 287 272 264 252 296 324 264 299 314 331 330 332 334 370 389 410 407
45 42 47 4 -54 -49 -8 26 79 147 183 147 148 168 257 311 458 441 364 486 445 435 354 330 353 356 362 353 294 289 323 309 275 323 315 325 323 287 289 375 395 413 432
23 32 11 -11 -50 -57 -55 -49 26 142 167 154 203 206 306 338 405 577 522 543 594 531 493 455 436 417 413 357 360 371 317 291 294 314 333 321 314 340 340 325 363 373 422
57 74 71 37 26 -39 -72 -81 -70 53 147 134 154 196 167 322 494 375 453 533 513 443 408 457 471 426 420 389 376 358 351 329 332 337 351 355 373 362 380 385 349 352 352
35 38 41 31 25 10 -14 -48 -47 -10 85 170 216 230 201 235 245 415 377 360 489 483 532 507 518 465 436 422 401 393 396 386 370 359 391 389 403 387 368 391 384 367 327
16 23 19 32 45 55 50 39 18 8 -4 56 141 197 240 266 270 308 388 360 435 398 329 549 549 482 433 416 412 380 396 437 418 423 402 430 392 399 374 377 350 304 303
17 39 22 30 35 36 42 42 59 53 48 67 57 64 121 178 204 237 249 339 426 435 410 394 390 374 396 417 378 382 401 407 403 383 363 343 328 313 269 242 235 230 229
32 36 42 40 41 43 46 44 40 56 74 80 84 122 138 98 157 228 260 265 279 342 372 404 402 399 372 345 344 365 361 333 291 268 251 213 187 193 208 194 193 204 195
31 60 48 47 62 73 73 68 67 63 65 92 121 133 129 129 175 197 217 187 179 182 193 204 223 236 232 218 208 186 176 178 193 205 217 203 190 177 187 194 191 194 205
39 47 56 39 48 53 62 76 74 72 71 66 76 122 134 97 121 150 175 207 205 199 190 185 204 210 200 185 166 167 186 198 193 184 188 195 194 201 178 174 170 163 148
27 34 40 41 37 41 41 48 61 73 86 96 107 126 146 121 130 143 162 172 160 156 156 152 172 192 200 195 187 187 197 193 181 165 160 157 152 153 160 174 173 167 162
37 33 34 35 28 35 44 46 52 58 68 86 101 123 142 133 126 133 145 152 160 177 179 173 166 183 197 205 211 197 186 189 167 137 146 152 147 145 146 153 147 160 165
31 36 32 30 33 29 32 46 48 63 65 76 84 93 101 106 119 130 122 118 128 141 148 156 165 167 165 181 176 161 152 145 144 140 127 129 134 137 135 137 134 134 134
28 28 30 30 27 26 31 40 53 58 62 67 76 82 91 97 103 105 107 109 110 114 131 126 118 132 154 165 165 169 172 173 149 129 117 120 119 122 116 117 112 123 116
23 24 24 22 25 24 25 30 43 50 57 67 70 78 79 86 87 86 88 88 89 98 104 110 120 133 136 144 151 150 159 158 148 140 110 106 111 114 116 117 123 110 113

GFSGL_con_3kmhel_129.txt.gz
Helicity
535 472 417 280 242 228 207 226 197 133 133 128 148 170 175 189 217 228 243 252 280 266 263 266 221 195 257 285 268 238 219 200 183 178 123 82 105 178 270 248 215 228 243
287 314 257 289 271 195 195 174 157 141 124 119 140 153 161 175 176 191 201 237 263 244 256 269 220 216 227 274 269 233 219 188 201 214 178 147 153 171 227 236 410 417 326
221 178 150 130 95 70 91 139 146 149 170 164 140 126 132 145 143 158 167 200 227 223 233 246 210 240 257 267 254 239 203 199 199 235 232 188 228 251 364 416 485 484 363
226 252 177 221 212 131 103 83 71 81 101 119 124 126 126 125 119 121 143 178 235 207 211 211 192 236 238 269 266 232 194 203 210 218 233 247 237 284 363 492 430 555 380
186 186 204 170 151 143 145 130 125 116 115 114 110 115 117 135 126 133 145 177 207 178 222 207 189 205 208 258 286 219 190 188 240 231 241 273 281 289 282 341 432 384 465
172 162 188 184 141 117 96 89 86 99 111 121 129 111 117 141 108 132 136 172 162 186 200 209 215 211 193 232 234 201 200 174 217 267 243 254 228 254 369 369 446 508 344
196 169 123 102 105 104 87 90 96 103 108 130 141 140 125 130 120 141 179 144 191 184 176 209 226 232 235 241 149 157 160 189 193 210 200 209 248 285 362 384 386 340 386
137 143 136 106 81 61 42 33 25 44 79 112 134 151 142 127 133 147 143 145 168 136 172 207 223 182 209 238 165 189 224 246 186 181 139 165 166 255 333 374 244 413 421
94 102 103 85 58 36 16 20 11 13 55 91 104 131 144 117 179 111 137 127 163 166 198 204 200 206 197 224 230 242 270 278 248 229 225 241 217 302 384 400 442 368 316
94 91 81 66 26 17 -10 -11 -15 4 28 77 114 105 131 156 150 228 100 152 141 209 253 234 220 191 213 257 247 258 243 222 240 255 321 349 386 418 435 296 289 234 319
70 56 54 66 47 28 -18 -27 -2 23 63 115 130 155 150 115 107 137 99 132 204 287 305 304 264 190 223 245 261 242 193 258 261 267 321 348 370 400 416 391 351 302 395
31 37 49 69 68 50 26 15 25 51 90 152 183 192 169 153 87 157 171 70 218 330 344 291 371 282 313 332 322 262 297 330 314 314 331 339 380 378 366 366 408 445 383
55 66 60 59 75 64 52 52 33 51 64 139 169 201 227 155 133 128 230 311 356 469 421 350 377 448 484 410 358 325 331 297 288 311 332 360 340 356 362 395 402 410 516
56 65 56 49 79 85 34 13 10 13 39 79 138 162 182 151 184 135 87 280 468 557 548 586 524 598 577 463 425 422 359 331 355 364 384 368 375 366 397 341 405 410 500
41 42 49 35 34 33 19 1 -25 -33 -33 -9 38 78 97 154 209 222 94 224 328 471 553 618 547 504 474 419 432 411 399 367 385 366 399 343 385 398 400 404 422 383 416
55 51 47 39 48 37 34 24 -1 -2 16 24 23 32 30 143 166 214 222 214 301 437 510 618 687 608 528 476 454 440 413 401 378 374 373 365 385 408 420 428 404 457 457
49 46 37 31 27 35 36 30 26 9 -8 31 36 34 64 122 177 213 233 318 370 417 433 474 544 570 598 558 517 484 494 446 439 464 444 441 418 432 447 457 451 424 437
34 35 24 19 18 17 18 15 13 38 67 63 61 74 72 60 131 191 232 313 436 502 422 458 382 425 486 475 518 543 479 493 513 504 524 504 455 449 485 479 444 404 358
30 35 32 25 26 27 19 18 18 29 44 64 77 128 166 107 132 159 194 206 272 372 490 489 447 397 386 404 404 405 412 467 432 477 503 465 414 388 398 352 324 282 230
32 58 45 38 41 46 42 37 36 39 48 64 76 109 120 111 169 162 157 137 154 195 252 295 342 367 363 340 325 328 347 358 326 299 268 248 234 221 212 191 179 196 213
22 32 49 43 54 50 43 42 33 33 38 47 57 86 95 64 99 117 127 147 144 151 161 162 185 204 217 214 198 189 189 189 170 158 156 158 159 174 170 172 170 164 158
10 12 20 31 39 54 55 51 52 47 47 51 54 89 112 91 89 89 108 131 130 124 122 138 160 178 193 205 190 176 174 170 158 148 152 153 163 172 174 184 189 190 184
6 7 9 10 18 34 46 61 65 68 66 65 67 80 95 91 92 104 113 114 123 146 143 143 142 156 159 163 168 176 181 189 168 132 139 149 152 157 160 167 169 174 171
5 8 4 -0 8 22 37 49 54 78 81 87 83 80 86 87 90 99 97 105 118 126 134 147 163 165 155 164 167 170 172 166 158 165 155 154 157 158 159 165 162 160 155
3 -0 -2 -3 -2 -1 8 26 43 60 74 85 89 89 87 89 99 105 101 96 102 114 143 144 142 155 177 187 183 181 179 179 156 139 130 135 136 133 125 125 126 136 143
-0 -0 -1 -2 -0 -0 1 10 17 31 48 58 72 84 87 90 95 101 101 101 100 106 111 117 137 160 157 154 163 165 171 173 158 146 114 110 116 118 120 131 135 130 133